Starlink 5491

operational
NORAD ID: 55332 Int'l Des: 2023-013 Owner: SPXS Country: US Constellation: starlink
LEOCIRCULAR

关于 Starlink 5491

正在加载描述...

实时位置

正在加载3D地球...

即将过境

高度历史

Altitude vs Time

uPlot chart will show altitude changes over time

两行轨道根数

1 55332U 23013B 25305.16243891 -.00001035 00000-0 -61575-4 0 9995
2 55332 43.0074 265.8632 0001105 260.7461 99.3256 15.02532041152525
Epoch: Nov 1, 2025 • Age: 19 hours

当前状态

高度 571.7 km
速度 7.58 km/s
星下点 -43.13°S, 153.24°E
发射日期 Jan 26, 2023
运行时间 2.7 years
类型 internet

技术详情

分类 Payload
质量 305.00 kg
干质量 290.00 kg
总质量 305.00 kg
长度 0.20 m
直径 2.80 m
跨度 9.00 m
形状 Box + pan
制造商 SPXS
平台类型 Starlink
阶段状态 In Orbit
所有者/国家 SPXS/US

大型星座

Loading constellations...